Casa Grande, AZ

6:44 AM MST on December 08, 2019 (GMT -0700)
Casa Grande Municipal

Weather History for KCGZ - November, 2019

Change the Weather History Date:

Tuesday, November 19, 2019

  Actual Average Record
Temperature  
Mean Temperature 63 °F -  
Max Temperature 73 °F 70 °F 87 °F (2006)
Min Temperature 53 °F 42 °F 30 °F (2000)
Degree Days  
Heating Degree Days 2    
Growing Degree Days 13 (Base 50)    
Moisture  
Dew Point 44 °F    
Average Humidity 62    
Maximum Humidity 96    
Minimum Humidity 20    
Precipitation  
Precipitation 0.49 in - - ()
Sea Level Pressure  
Sea Level Pressure 29.81 in    
Wind  
Wind Speed 6 mph ()    
Max Wind Speed 30 mph    
Max Gust Speed 39 mph    
Visibility 8.1 miles    
Events Rain , Thunderstorm    
Averages and records for this station are not official NWS values.
T = Trace of Precipitation, MM = Missing Value Source: Averaged Metar Reports

Daily Weather History Graph

Daily Weather History Graph

Search for Another Location

Airport or City:

Astronomy

Nov. 19, 2019 Rise Set
Actual Time 7:01 AM MST 5:23 PM MST
Civil Twilight 6:34 AM MST 5:49 PM MST
Nautical Twilight 6:04 AM MST 6:19 PM MST
Astronomical Twilight 5:35 AM MST 6:49 PM MST
Moon No Moon Rise 1:16 PM MST (11/19)
Length of Visible Light 11h 15m
Length of Day
10h 22m
Waning Gibbous, 51% of the Moon is Illuminated
Nov 19
Waning Gibbous
Nov 19
Last Quarter
Nov 26
New
Dec 3
First Quarter
Dec 11
Full

Hourly Weather History & Observations

Time (MST) Temp. Dew Point Humidity Pressure Visibility Wind Dir Wind Speed Gust Speed Precip Events Conditions
12:56 AM 55.0 °F 25.0 °F 31% 29.90 in 10.0 mi Calm Calm - N/A   Clear
1:56 AM 53.1 °F 25.0 °F 34% 29.89 in 10.0 mi ENE 4.6 mph - N/A   Clear
2:56 AM 54.0 °F 26.1 °F 34% 29.88 in 10.0 mi NE 6.9 mph - N/A   Clear
3:56 AM 55.0 °F 25.0 °F 31% 29.88 in 10.0 mi ENE 5.8 mph - N/A   Mostly Cloudy
4:56 AM 59.0 °F 25.0 °F 27% 29.86 in 10.0 mi NE 3.5 mph - N/A   Overcast
5:56 AM 61.0 °F 25.0 °F 25% 29.86 in 10.0 mi Calm Calm - N/A   Overcast
6:56 AM 57.9 °F 25.0 °F 28% 29.87 in 10.0 mi Calm Calm - N/A   Mostly Cloudy
7:56 AM 60.1 °F 24.1 °F 25% 29.88 in 10.0 mi ENE 6.9 mph - N/A   Overcast
8:56 AM 66.0 °F 30.0 °F 26% 29.88 in 10.0 mi SE 4.6 mph - N/A   Overcast
9:56 AM 68.0 °F 32.0 °F 26% 29.87 in 10.0 mi ENE 4.6 mph - N/A   Clear
10:56 AM 71.1 °F 33.1 °F 25% 29.86 in 10.0 mi ENE 3.5 mph - N/A   Clear
11:56 AM 73.9 °F 32.0 °F 21% 29.80 in 10.0 mi NNE 4.6 mph - N/A   Mostly Cloudy
12:56 PM 73.9 °F 30.0 °F 20% 29.82 in 10.0 mi SW 12.7 mph 26.5 mph N/A Thunderstorm Overcast
1:00 PM 71.6 °F 35.6 °F 27% 29.84 in 2.0 mi SW 29.9 mph 38.0 mph 0.00 in Rain , Thunderstorm Light Thunderstorms and Rain
1:10 PM 59.0 °F 48.2 °F 67% 29.85 in 2.0 mi West 21.9 mph 39.1 mph 0.12 in Rain , Thunderstorm Heavy Thunderstorms and Rain
1:26 PM 57.2 °F 51.8 °F 82% 29.83 in 3.0 mi NNW 8.1 mph - 0.16 in Rain , Thunderstorm Thunderstorms and Rain
1:36 PM 57.2 °F 53.6 °F 88% 29.82 in 2.5 mi NNE 8.1 mph - 0.17 in Rain Light Rain
1:41 PM 57.2 °F 53.6 °F 88% 29.83 in 3.0 mi ESE 4.6 mph - 0.17 in Rain , Thunderstorm Light Rain
1:56 PM 57.9 °F 52.0 °F 81% 29.85 in 5.0 mi Variable 4.6 mph - 0.20 in Rain , Thunderstorm Rain
2:13 PM 57.2 °F 53.6 °F 88% 29.84 in 4.0 mi Calm Calm - 0.04 in Rain Rain
2:56 PM 57.9 °F 53.1 °F 84% 29.83 in 10.0 mi Calm Calm - 0.07 in Rain Light Rain
3:56 PM 59.0 °F 55.9 °F 90% 29.79 in 5.0 mi ENE 17.3 mph - 0.10 in Rain Heavy Rain
4:40 PM 59.0 °F 53.6 °F 82% 29.79 in 10.0 mi East 16.1 mph - 0.03 in Rain , Thunderstorm Light Rain
4:56 PM 57.9 °F 54.0 °F 87% 29.77 in 10.0 mi East 13.8 mph 23.0 mph 0.04 in Rain , Thunderstorm Thunderstorms and Rain
5:43 PM 59.0 °F 55.4 °F 88% 29.74 in 10.0 mi ENE 16.1 mph - 0.07 in Rain Light Rain
7:56 PM 59.0 °F 57.0 °F 93% 29.73 in 10.0 mi Calm Calm - 0.00 in Rain Light Rain
8:56 PM 59.0 °F 57.9 °F 96% 29.73 in 3.0 mi SE 6.9 mph - 0.08 in Rain Light Rain
9:06 PM 59.0 °F 57.2 °F 94% 29.74 in 8.0 mi SE 6.9 mph - 0.00 in Rain Light Rain
9:18 PM 59.0 °F 57.2 °F 94% 29.73 in 10.0 mi East 6.9 mph - 0.00 in   Overcast
9:56 PM 59.0 °F 57.9 °F 96% 29.70 in 10.0 mi ESE 5.8 mph - 0.00 in   Scattered Clouds
10:56 PM 59.0 °F 57.0 °F 93% 29.69 in 10.0 mi SW 10.4 mph - N/A   Mostly Cloudy
11:31 PM 59.0 °F 57.2 °F 94% 29.70 in 10.0 mi East 5.8 mph - N/A   Overcast
11:56 PM 59.0 °F 57.0 °F 93% 29.67 in 10.0 mi ENE 5.8 mph - N/A   Mostly Cloudy